User: anonymous   Login
Location: Unspecified
(0.0000°N, 0.0000°E)
Time: 05:12:53
(UTC+00:00)
Language:

Tansei-1 - Orbit

View from above orbital plane
View from above orbital plane
View from above satellite
View from above satellite

Ground track
Ground track

The orbit data is extracted from the following two-line orbital elements,

1  4952U 71011A   18267.60952924 +.00000074 +00000-0 +12335-4 0  9990
2  4952 029.6688 010.7479 0079914 349.3005 131.8117 13.58477382364433
Epoch (UTC): 24 September 2018 14:37:43
Eccentricity: 0.0079914
inclination: 29.6688°
perigee height: 982 km
apogee height: 1100 km
right ascension of ascending node: 10.7479°
argument of perigee: 349.3005°
revolutions per day: 13.58477382
mean anomaly at epoch: 131.8117°
orbit number at epoch: 36443

The dashed part of the orbit path shows where the satellite is in the earth's shadow,  

DLR